Location: Bédeille
(43.0872°N, 1.1041°E)
Time: 11:17:20
(UTC+00:00)

YAOGAN 11 - Visible Passes

Search period start: 26 February 2024 00:00
Search period end: 07 March 2024 00:00
Orbit: 607 x 660 km, 98.4° (Epoch: 26 February)

Date Brightness Start Highest point End Pass type
(mag) Time Alt. Az. Time Alt. Az. Time Alt. Az.
26 Feb 6.8 04:00:09 10° N 04:00:09 10° N 04:00:11 10° N visible
26 Feb6.505:37:33NW05:37:33NW05:29:02SWvisible
26 Feb 7.2 18:54:31 10° NW 18:56:08 12° WNW 18:57:46 10° W visible
27 Feb 6.2 04:13:18 10° SSE 04:21:02 15° N 04:21:50 10° N visible
28 Feb 7.1 03:04:21 12° NE 03:04:21 12° NE 03:05:18 10° NNE visible
28 Feb 5.6 04:34:50 10° S 04:41:43 22° NNW 04:43:17 10° NNW visible
29 Feb 6.4 03:21:18 10° ESE 03:24:30 21° ENE 03:27:43 10° NNE visible
29 Feb 4.8 04:56:41 10° SSW 05:01:41 31° WNW 05:04:33 10° NNW visible
29 Feb 6.6 18:21:08 10° NNW 18:24:38 24° WNW 18:28:10 10° WSW visible
01 Mar 5.6 03:42:00 10° SE 03:45:50 34° ENE 03:49:40 10° N visible
01 Mar 5.2 05:18:55 10° SW 05:22:13 22° W 05:25:32 10° NW visible
01 Mar 7.1 18:43:21 10° NNW 18:45:55 15° WNW 18:48:30 10° W visible
02 Mar 4.6 04:03:03 10° SSE 04:07:12 57° ENE 04:11:24 10° N visible
02 Mar 5.7 05:41:55 10° WSW 05:43:54 13° W 05:45:55 10° WNW visible
03 Mar 7.3 02:52:22 10° ENE 02:53:00 10° ENE 02:53:38 10° NE visible
03 Mar 3.9 04:24:24 10° SSE 04:28:40 84° WSW 04:32:57 10° NNW visible
04 Mar 6.8 03:11:32 10° ESE 03:14:13 17° ENE 03:16:55 10° NNE visible
04 Mar 4.2 04:46:03 10° S 04:50:10 48° W 04:54:19 10° NNW visible
04 Mar 6.2 18:10:28 10° N 18:14:21 31° WNW 18:18:15 10° SW visible
05 Mar 6.1 03:31:58 10° ESE 03:35:29 26° ENE 03:39:03 10° N visible
05 Mar 4.8 05:08:03 10° SSW 05:11:44 28° W 05:15:27 10° NW visible
05 Mar 7.0 18:32:28 10° NNW 18:35:39 20° WNW 18:38:51 10° WSW visible
06 Mar 5.2 03:52:49 10° SE 03:56:50 42° ENE 04:00:53 10° N visible
06 Mar 5.4 05:30:33 10° SW 05:33:22 17° W 05:36:13 10° NW visible
06 Mar 7.3 18:54:58 10° NW 18:56:53 13° WNW 18:58:48 10° W visible
